Location: Caracas
(10.5033°N, 66.8422°W)
Time: 22:02:10
(UTC-04:00)

Vanguard 3 - Visible Passes

Search period start: 21 January 2018 00:00
Search period end: 31 January 2018 00:00
Orbit: 508 x 3264 km, 33.4° (Epoch: 20 January)

Date Brightness Start Highest point End Pass type
(mag) Time Alt. Az. Time Alt. Az. Time Alt. Az.
21 Jan 11.2 02:03:49 20° NE 02:03:49 20° NE 02:09:36 10° NE visible
21 Jan 10.6 04:08:23 32° NNW 04:14:11 36° NNE 04:30:53 10° ENE visible
21 Jan 10.3 06:14:40 10° NW 06:34:27 60° NNE 06:48:55 10° ESE visible
21 Jan 9.0 20:01:35 10° S 20:06:25 24° SE 20:06:54 24° SE visible
21 Jan 10.2 22:10:41 10° WSW 22:11:29 15° WSW 22:11:29 15° WSW visible
22 Jan 10.7 02:58:34 31° NNE 02:58:34 31° NNE 03:12:16 10° ENE visible
22 Jan 10.5 05:03:08 22° NW 05:16:33 47° NNE 05:32:51 10° E visible
22 Jan 8.5 20:57:47 10° SW 21:01:56 47° SSW 21:01:56 47° SSW visible
23 Jan 11.3 01:48:46 17° NE 01:48:46 17° NE 01:53:05 10° NE visible
23 Jan 10.5 03:53:20 35° N 03:58:02 38° NNE 04:15:17 10° ENE visible
23 Jan 10.2 05:57:54 10° NW 06:17:57 67° NNE 06:33:22 10° ESE visible
23 Jan 8.6 19:45:55 10° SSW 19:50:35 28° SE 19:52:25 25° ESE visible
23 Jan 9.9 21:55:35 10° WSW 21:57:01 19° WSW 21:57:01 19° WSW visible
24 Jan 10.8 02:43:35 30° NNE 02:43:35 30° NNE 02:56:18 10° ENE visible
24 Jan 10.4 04:48:09 27° NW 05:00:08 51° NNE 05:17:16 10° E visible
24 Jan 7.8 20:42:31 10° SW 20:47:31 71° SSW 20:47:31 71° SSW visible
25 Jan 11.4 01:33:51 15° NE 01:33:51 15° NE 01:36:36 10° ENE visible
25 Jan 10.4 03:38:25 38° N 03:41:48 40° NNE 03:59:34 10° E visible
25 Jan 10.2 05:43:00 15° NW 06:01:18 73° NNE 06:17:38 10° ESE visible
25 Jan 8.2 19:30:21 10° SSW 19:34:49 34° SE 19:38:03 23° E visible
25 Jan 9.6 21:40:37 10° W 21:42:38 23° W 21:42:38 23° W visible
26 Jan 10.8 02:28:44 29° NE 02:28:44 29° NE 02:40:19 10° ENE visible
26 Jan 10.3 04:33:19 33° NNW 04:43:34 56° NNE 05:01:30 10° ESE visible
26 Jan 7.5 20:27:21 10° WSW 20:32:40 84° NNW 20:33:11 77° NNE visible
27 Jan 11.5 01:19:05 12° ENE 01:19:05 12° ENE 01:20:11 10° ENE visible
27 Jan 10.4 03:23:41 42° N 03:25:29 43° NNE 03:43:45 10° E visible
27 Jan 10.1 05:28:16 20° NW 05:44:30 81° NE 06:01:45 10° ESE visible
27 Jan 7.7 19:14:53 10° SSW 19:19:09 42° SE 19:23:44 18° ENE visible
27 Jan 9.4 21:25:46 10° W 21:28:20 26° WNW 21:28:20 26° WNW visible
28 Jan 10.9 02:14:04 28° NE 02:14:04 28° NE 02:24:18 10° ENE visible
28 Jan 10.2 04:18:39 41° NNW 04:26:54 61° NNE 04:45:35 10° ESE visible
28 Jan 10.1 06:24:44 10° WNW 06:44:39 68° SW 07:00:26 10° SE visible
28 Jan 7.6 20:12:17 10° WSW 20:17:12 65° NNW 20:18:52 49° NNE visible
29 Jan 10.3 03:09:06 46° NNE 03:09:06 46° NNE 03:27:46 10° E visible
29 Jan 10.0 05:13:41 27° NW 05:27:36 88° NE 05:45:40 10° SE visible
29 Jan 7.2 18:59:30 10° SW 19:03:36 56° SE 19:09:26 12° ENE visible
29 Jan 9.2 21:11:04 10° W 21:14:02 26° NW 21:14:02 26° NW visible
30 Jan 11.0 01:59:34 26° ENE 01:59:34 26° ENE 02:08:13 10° E visible
30 Jan 10.0 04:04:09 51° NNW 04:10:08 67° NNE 04:29:29 10° ESE visible
30 Jan 10.2 06:08:45 11° WNW 06:27:42 62° SW 06:44:13 10° SE visible
30 Jan 7.8 19:57:21 10° W 20:01:51 48° NNW 20:04:34 31° NNE visible
